1393113631342,2.80192
1393113691342,2.78607
1393113751342,2.77718
1393113811342,2.79638
1393113871342,2.77272
1393113931341,2.81258
1393113991341,2.79819
1393114051342,2.79447
1393114111342,2.82587
1393114171342,2.76773
1393114231342,2.79320
1393114291342,2.78423
1393114351342,2.77407
1393114411342,2.78136
1393114471342,2.75591
1393114531342,2.77319
1393114591342,2.82405
1393114651342,2.78050
1393114711342,2.81149
1393114771342,2.76110
1393114831342,2.78491
1393114891342,2.78073
1393114951342,2.78526
1393115011342,2.81109
1393115071342,2.79419
1393115131342,2.78646
1393115191342,2.78655
1393115251341,2.79229
1393115311341,2.81305
1393115371341,2.81423
1393115431342,2.77671
1393115491342,2.81171
1393115551342,2.80686
1393115611342,2.75908
1393115671342,2.81420
1393115731342,2.79984
1393115791342,2.79216
1393115851342,2.77668
1393115911342,2.73031
1393115971342,2.78799
1393116031342,2.80096
1393116091342,2.77938
1393116151342,2.81344
1393116211342,2.77744
1393116271342,2.77283
1393116331342,2.79589
1393116391342,2.81453
1393116451342,2.79734
1393116511342,2.78097
1393116571342,2.77829
1393116631341,2.80571
1393116691341,2.81654
1393116751342,2.84962
1393116811342,2.80270
1393116871342,2.79853
1393116931342,2.77475
1393116991342,2.77206
1393117051342,2.80408
1393117111342,2.78095
1393117171342,2.82912
1393117231352,2.82218
1393117291352,2.77499
1393117351352,2.76986
1393117411352,2.78746
1393117471352,2.81042
1393117531352,2.77967
1393117591352,2.82942
1393117651352,2.79848
1393117711352,2.80384
1393117771352,2.75792
1393117831352,2.96210
1393117891352,2.76972
1393117951352,2.80245
1393118011352,2.80162
1393118071352,2.78328
1393118131352,2.81169
1393118191352,2.77414
1393118251352,2.80158
1393118311352,2.77403
1393118371352,2.80042
1393118431352,2.77726
1393118491352,2.80161
1393118551352,2.78781
1393118611352,2.78404
1393118671352,2.78984
1393118731352,2.81242
1393118791352,2.79925
1393118851352,2.76398
1393118911352,2.83624
1393118971352,2.78267
1393119031352,2.78921
1393119091352,2.77945
1393119151352,2.80919
1393119211352,2.81203
1393119271352,2.77055
1393119331352,2.77284
1393119391352,2.79755
1393119451352,2.80011
1393119511352,2.79067
1393119571352,2.79251
1393119631352,2.95676
1393119691352,2.81861
1393119751352,2.76666
1393119811352,2.76923
1393119871352,2.80529
1393119931352,2.82281
1393119991352,2.80409
1393120051352,2.78514
1393120111352,2.79151
1393120171352,2.78974
1393120231352,2.78407
1393120291352,2.78936
1393120351352,2.78720
1393120411352,2.78602
1393120471352,2.79408
1393120531352,2.78587
1393120591352,2.76973
1393120651352,2.80165
1393120711352,2.78465
1393120771352,2.80534
1393120831363,2.79718
1393120891363,2.78118
1393120951363,2.80393
1393121011363,2.80420
1393121071363,2.80739
1393121131363,2.79707
1393121191363,2.79063
1393121251363,2.82563
1393121311363,2.81411
1393121371363,2.81877
1393121431363,2.79751
1393121491363,2.78271
1393121551363,2.77451
1393121611363,2.81673
1393121671363,2.81271
1393121731363,2.80025
1393121791363,2.83267
1393121851363,2.81446
1393121911363,2.84052
1393121971363,2.76341
1393122031363,2.76593
1393122091363,2.78630
1393122151363,2.77540
1393122211363,2.78754
1393122271363,2.79451
1393122331363,2.79316
1393122391363,2.81404
1393122451363,2.79728
1393122511363,2.79377
1393122571363,2.77039
1393122631363,2.79894
1393122691363,2.79262
1393122751363,2.81868
1393122811363,2.77140
1393122871363,2.79495
1393122931363,2.78802
1393122991363,2.79384
1393123051363,2.81800
1393123111363,2.80906
1393123171363,2.78436
1393123231363,2.80097
1393123291363,2.77371
1393123351363,2.79979
1393123411363,2.79290
1393123471363,2.77382
1393123531363,2.76803
1393123591363,2.79922
1393123651363,2.79849
1393123711363,2.79707
1393123771363,2.78596
1393123831363,2.81658
1393123891363,2.79200
1393123951363,2.79335
1393124011363,2.80471
1393124071363,2.81013
1393124131363,2.81551
1393124191363,2.82347
1393124251363,2.78232
1393124311363,2.81496
1393124371363,2.81947
1393124431374,2.82049
1393124491374,2.81891
1393124551374,2.80947
1393124611374,2.78753
1393124671374,2.77886
1393124731374,2.82788
1393124791374,2.83118
1393124851374,2.78155
1393124911374,2.78626
1393124971374,2.76005
1393125031374,2.82151
1393125091374,2.81095
1393125151374,2.79923
1393125211374,2.81237
1393125271374,2.82003
1393125331374,2.82939
1393125391374,2.79214
1393125451374,2.80776
1393125511374,2.80058
1393125571374,2.83009
1393125631374,2.78702
1393125691374,2.69502
1393125751374,2.79288
1393125811374,2.79698
1393125871374,2.81766
1393125931374,2.81582
1393125991374,2.79117
1393126051374,2.79415
1393126111374,2.78714
1393126171374,2.80214
1393126231374,2.80675
1393126291374,2.85093
1393126351374,2.80967
1393126411374,2.80179
1393126471374,2.80071
1393126531374,2.84550
1393126591374,2.80701
1393126651374,2.80634
1393126711374,2.81503
1393126771374,2.82676
1393126831374,2.81436
1393126891374,2.82945
1393126951374,2.83193
1393127011374,2.78708
1393127071374,2.80326
1393127131374,2.80642
1393127191374,2.79371
1393127251374,2.79157
1393127311374,2.81376
1393127371374,2.83277
1393127431374,2.82439
1393127491374,2.84233
1393127551374,2.83669
1393127611374,2.84387
1393127671374,2.81101
1393127731374,2.82412
1393127791374,2.82936
1393127851374,2.80778
1393127911374,2.80735
1393127971374,2.80016
1393128031386,2.81998
1393128091386,2.83392
1393128151386,2.80482
1393128211386,2.83072
1393128271386,2.82229
1393128331386,2.83846
1393128391386,2.86166
1393128451386,2.81775
1393128511386,2.83312
1393128571386,2.83031
1393128631386,2.86201
1393128691386,2.84190
1393128751386,2.90183
1393128811386,2.87553
1393128871386,2.87697
1393128931386,2.84267
1393128991385,2.82858
1393129051385,2.83649
1393129111385,2.89779
1393129171386,2.85463
1393129231386,2.86157
1393129291386,2.85332
1393129351386,2.87657
1393129411386,2.83993
1393129471386,2.84344
1393129531386,2.89297
1393129591386,2.86079
1393129651386,2.85702
1393129711386,2.84990
1393129771386,2.83881
1393129831386,2.90321
1393129891386,2.89618
1393129951386,2.86301
1393130011386,2.87869
1393130071386,2.85937
1393130131386,2.87256
1393130191386,2.88551
1393130251386,2.86049
1393130311386,2.86263
1393130371385,2.88305
1393130431385,2.86818
1393130491386,2.88175
1393130551386,2.89741
1393130611386,2.88520
1393130671386,2.87535
1393130731386,2.87766
1393130791386,2.90088
1393130851386,2.86933
1393130911386,2.85389
1393130971386,2.87182
1393131031386,2.87817
1393131091386,2.92734
1393131151386,2.88503
1393131211386,2.91468
1393131271386,2.89769
1393131331386,2.87688
1393131391386,2.88730
1393131451386,2.86126
1393131511386,2.92040
1393131571386,2.86254
1393131631397,2.88590
1393131691397,2.88691
1393131751397,2.87964
1393131811397,2.90877
1393131871397,2.91526
1393131931397,2.89139
1393131991397,2.91176
1393132051397,2.87623
1393132111397,2.91146
1393132171397,2.92278
1393132231397,2.91138
1393132291397,2.90623
1393132351397,2.90929
1393132411397,2.87597
1393132471397,2.90045
1393132531397,2.92425
1393132591397,2.92276
1393132651397,2.92096
1393132711397,2.91949
1393132771397,2.87957
1393132831397,2.88039
1393132891397,2.90518
1393132951397,2.92344
1393133011397,2.88747
1393133071397,2.90665
1393133131397,2.90385
1393133191397,2.91565
1393133251397,2.91769
1393133311397,2.92129
1393133371397,2.90538
1393133431397,2.89661
1393133491397,2.89837
1393133551397,2.93336
1393133611397,2.87595
1393133671397,2.90878
1393133731397,2.92332
1393133791397,2.90732
1393133851397,2.94136
1393133911397,2.91256
1393133971397,2.90275
1393134031397,2.88908
1393134091397,2.89900
1393134151397,2.87464
1393134211397,2.95192
1393134271397,2.99456
1393134331397,2.92151
1393134391397,2.89618
1393134451397,2.90000
1393134511397,2.93074
1393134571397,2.89649
1393134631397,2.92479
1393134691397,2.92073
1393134751397,2.90510
1393134811397,2.92674
1393134871397,2.92085
1393134931397,2.94200
1393134991397,2.90963
1393135051397,2.91255
1393135111397,2.96046
1393135171397,2.90270
1393135231408,3.11883
1393135291408,2.92193
1393135351408,2.90184
1393135411408,2.90646
1393135471408,2.91779
1393135531408,2.92450
1393135591408,2.90744
1393135651408,2.90150
1393135711408,2.93817
1393135771408,2.94065
1393135831408,2.94768
1393135891408,2.92292
1393135951408,2.89855
1393136011408,2.90009
1393136071408,2.92530
1393136131408,2.92994
1393136191408,2.94832
1393136251408,2.91592
1393136311408,2.94814
1393136371408,2.95248
1393136431408,2.92504
1393136491408,2.92297
1393136551408,2.94296
1393136611408,2.92605
1393136671408,2.92898
1393136731408,2.94643
1393136791408,2.96445
1393136851408,2.95858
1393136911408,2.95314
1393136971408,2.96265
1393137031408,2.93007
1393137091408,2.96366
1393137151408,2.98550
1393137211408,2.96231
1393137271408,2.95538
1393137331408,2.96320
1393137391408,2.95453
1393137451408,2.92795
1393137511408,2.95765
1393137571408,2.96355
1393137631408,2.96450
1393137691408,2.93254
1393137751408,2.97675
1393137811408,2.93202
1393137871408,2.93740
1393137931408,2.94395
1393137991408,2.95724
1393138051408,2.96588
1393138111408,2.94875
1393138171408,2.98224
1393138231408,3.34483
1393138291408,2.95753
1393138351408,2.99347
1393138411408,2.91845
1393138471408,2.96567
1393138531408,2.98024
1393138591408,2.98292
1393138651408,2.97608
1393138711408,2.97242
1393138771408,2.97929
1393138831419,2.94969
1393138891419,2.95306
1393138951419,2.95920
1393139011419,2.97797
1393139071419,2.95906
1393139131419,2.93730
1393139191419,2.97735
1393139251419,2.93326
1393139311419,2.94474
1393139371419,2.94408
1393139431419,2.92680
1393139491419,2.94412
1393139551419,2.98115
1393139611419,2.95095
1393139671419,2.97535
1393139731419,2.95689
1393139791419,2.96547
1393139851419,2.95668
1393139911419,2.95985
1393139971419,2.92836
1393140031419,2.94587
1393140091419,2.91662
1393140151419,2.97584
1393140211419,2.94476
1393140271419,2.93103
1393140331419,2.96164
1393140391419,2.94648
1393140451419,2.90543
1393140511419,2.89724
1393140571419,2.95105
1393140631419,2.91951
1393140691419,2.92108
1393140751419,2.94502
1393140811419,2.92569
1393140871419,2.93484
1393140931419,2.90336
1393140991419,2.90053
1393141051419,2.89930
1393141111419,2.90258
1393141171419,2.91036
1393141231419,2.90105
1393141291419,2.90689
1393141351419,2.89935
1393141411419,2.90305
1393141471419,2.88106
1393141531419,2.88529
1393141591419,2.91979
1393141651419,2.86825
1393141711419,2.89635
1393141771419,2.90218
1393141831419,2.91311
1393141891419,2.92825
1393141951419,2.91689
1393142011419,2.89985
1393142071419,2.91021
1393142131419,2.92109
1393142191419,2.89404
1393142251419,2.89850
1393142311419,2.87194
1393142371419,2.89555
1393142431430,2.92630
1393142491430,2.89031
1393142551430,2.91299
1393142611430,2.90946
1393142671430,2.87558
1393142731430,2.93512
1393142791430,2.92117
1393142851430,2.89272
1393142911430,2.89975
1393142971430,2.91760
1393143031430,2.87575
1393143091430,2.90204
1393143151430,2.88975
1393143211430,2.87121
1393143271430,2.86677
1393143331430,2.88061
1393143391430,2.90057
1393143451430,2.88528
1393143511430,2.88400
1393143571430,2.85780
1393143631430,2.88057
1393143691430,2.86241
1393143751430,2.89629
1393143811430,2.88362
1393143871430,2.88598
1393143931430,2.88027
1393143991430,2.86938
1393144051430,2.85627
1393144111430,2.88380
1393144171430,2.88599
1393144231430,2.87462
1393144291430,2.88822
1393144351430,2.87580
1393144411430,2.85608
1393144471430,2.86797
1393144531430,2.87219
1393144591430,2.86326
1393144651430,2.87680
1393144711430,2.85947
1393144771430,2.88450
1393144831430,2.89515
1393144891430,2.86687
1393144951430,2.86614
1393145011430,2.86973
1393145071430,2.88475
1393145131430,2.88757
1393145191430,2.88206
1393145251430,2.89163
1393145311430,2.87811
1393145371430,2.86881
1393145431430,2.91574
1393145491430,2.86860
1393145551430,2.90448
1393145611430,2.87525
1393145671430,2.88271
1393145731430,2.88850
1393145791430,2.87392
1393145851430,2.85631
1393145911430,2.88782
1393145971430,2.90096
1393146031441,2.88177
1393146091441,2.89895
1393146151441,2.89080
1393146211441,2.88431
1393146271441,2.87694
1393146331441,2.89877
1393146391441,2.87861
1393146451441,2.90499
1393146511441,2.89249
1393146571441,2.89134
1393146631441,2.91067
1393146691441,2.87619
1393146751441,2.86484
1393146811441,2.87460
1393146871441,2.88556
1393146931441,2.86052
1393146991441,2.87938
1393147051441,2.91531
1393147111441,2.91725
1393147171441,2.91270
1393147231441,2.88033
1393147291441,2.93224
1393147351441,2.88210
1393147411441,2.89668
1393147471441,2.91069
1393147531441,2.89717
1393147591441,2.89401
1393147651441,2.90946
1393147711441,2.93004
1393147771441,2.88462
1393147831441,2.91218
1393147891441,2.90307
1393147951441,2.91382
1393148011441,2.89953
1393148071441,2.91782
1393148131441,2.89841
1393148191441,2.92554
1393148251441,2.93463
1393148311441,2.92092
1393148371441,2.94798
1393148431441,2.91511
1393148491441,2.90772
1393148551441,2.89353
1393148611441,2.90192
1393148671441,2.88279
1393148731441,2.90136
1393148791441,2.92350
1393148851441,2.88759
1393148911441,2.91078
1393148971441,2.91404
1393149031441,2.93151
1393149091441,2.91932
1393149151441,2.87620
1393149211441,2.91903
1393149271441,2.92484
1393149331441,2.90626
1393149391441,2.91523
1393149451441,2.91541
1393149511441,2.87459
1393149571441,2.88828
1393149631452,2.89067
1393149691452,2.88024
1393149751452,2.93159
1393149811452,2.87816
1393149871452,2.89399
1393149931452,2.88891
1393149991452,2.93480
1393150051452,2.88124
1393150111452,2.92429
1393150171452,2.92748
1393150231452,2.87623
1393150291452,2.90119
1393150351452,2.88827
1393150411452,2.89399
1393150471452,2.92119
1393150531452,2.88517
1393150591452,2.90137
1393150651452,2.90498
1393150711452,2.88828
1393150771452,2.89796
1393150831452,2.91683
1393150891452,2.90419
1393150951452,2.89421
1393151011452,2.89672
1393151071452,2.88153
1393151131452,2.86592
1393151191452,2.92187
1393151251452,2.90466
1393151311452,2.87581
1393151371452,2.87179
1393151431452,2.89211
1393151491452,2.89642
1393151551452,2.92138
1393151611452,2.90803
1393151671452,2.91546
1393151731452,2.91248
1393151791452,2.91266
1393151851452,2.88485
1393151911452,2.88609
1393151971452,2.89814
1393152031452,2.92093
1393152091452,2.90187
1393152151452,2.88959
1393152211452,2.94001
1393152271452,2.90125
1393152331452,2.90506
1393152391452,2.91349
1393152451452,2.89950
1393152511452,2.91988
1393152571452,2.90704
1393152631452,2.87177
1393152691452,2.89580
1393152751452,2.89749
1393152811452,2.88949
1393152871452,2.88277
1393152931452,2.90239
1393152991452,2.91043
1393153051452,2.91399
1393153111452,2.91760
1393153171452,2.91591
1393153231463,2.92205
1393153291463,2.89237
1393153351463,2.89978
1393153411463,2.91313
1393153471463,2.89732
1393153531463,2.92942
1393153591463,2.91160
1393153651463,2.93543
1393153711463,2.92852
1393153771463,2.91282
1393153831463,2.91067
1393153891463,2.92250
1393153951463,2.95630
1393154011463,2.91015
1393154071463,2.93592
1393154131463,2.92568
1393154191463,2.90817
1393154251463,2.92759
1393154311463,2.90648
1393154371463,2.90319
1393154431463,2.90186
1393154491463,2.90313
1393154551463,2.90742
1393154611463,2.92450
1393154671463,2.92353
1393154731463,2.88785
1393154791463,2.96695
1393154851463,2.90827
1393154911463,2.91904
1393154971463,2.90442
1393155031463,2.93421
1393155091463,2.90639
1393155151463,2.90082
1393155211463,2.90354
1393155271463,2.93190
1393155331463,2.93675
1393155391463,2.88529
1393155451463,2.88522
1393155511463,2.90480
1393155571463,2.93266
1393155631463,2.90901
1393155691463,2.90147
1393155751463,2.92916
1393155811463,2.91734
1393155871463,2.90884
1393155931463,2.92651
1393155991463,2.88596
1393156051463,2.93891
1393156111463,2.93958
1393156171463,2.91399
1393156231463,2.91902
1393156291463,2.87626
1393156351463,2.91577
1393156411463,2.94415
1393156471463,2.97750
1393156531463,2.90790
1393156591463,2.91839
1393156651463,3.22865
1393156711463,2.90296
1393156771463,2.91455
1393156831474,2.93576
1393156891474,2.90748
1393156951474,2.89254
1393157011474,2.93300
1393157071474,2.91020
1393157131474,2.89834
1393157191474,2.93577
1393157251474,2.95620
1393157311474,2.90648
1393157371474,2.90597
1393157431474,2.94881
1393157491474,2.94715
1393157551474,2.94094
1393157611474,2.96426
1393157671474,2.95217
1393157731474,2.95462
1393157791474,2.95021
1393157851474,2.96487
1393157911474,2.98242
1393157971474,2.96384
1393158031474,2.96062
1393158091474,2.94871
1393158151474,2.96532
1393158211474,2.99055
1393158271474,2.96566
1393158331474,2.97763
1393158391474,2.96887
1393158451474,2.91392
1393158511474,2.96422
1393158571474,2.97910
1393158631474,2.97176
1393158691474,2.97115
1393158751474,2.95138
1393158811474,2.96950
1393158871474,2.96299
1393158931474,2.96723
1393158991474,2.94808
1393159051474,2.97965
1393159111474,2.96997
1393159171474,2.98203
1393159231474,2.94070
1393159291474,2.97476
1393159351474,2.96458
1393159411474,2.95063
1393159471474,2.97632
1393159531474,2.95827
1393159591474,2.97537
1393159651474,2.97543
1393159711474,2.97935
1393159771474,2.99944
1393159831474,2.97310
1393159891474,2.95870
1393159951474,2.97651
1393160011474,2.95522
1393160071474,2.97594
1393160131474,2.97564
1393160191474,2.97876
1393160251474,2.97779
1393160311474,2.97284
1393160371474,2.96978
1393160431485,2.98274
1393160491485,2.96907
1393160551485,2.94216
1393160611485,2.97846
1393160671485,2.98205
1393160731485,2.99570
1393160791485,2.96792
1393160851485,2.94847
1393160911485,2.97422
1393160971485,2.96264
1393161031485,2.96655
1393161091485,3.00564
1393161151485,2.95345
1393161211485,2.95973
1393161271485,2.96515
1393161331485,2.93535
1393161391485,2.97249
1393161451485,2.97639
1393161511485,2.97044
1393161571485,2.95594
1393161631485,2.99401
1393161691485,2.97400
1393161751485,2.88416
1393161811485,2.88515
1393162951485,2.96241
1393163011485,2.43639
1393163071485,2.94996
1393163131485,2.93308
1393163191485,2.92877
1393163251485,2.97736
1393163311485,2.94868
1393163371485,2.93781
1393163431485,2.94090
1393163491485,2.93732
1393163551485,2.93440
1393163611485,2.95465
1393163671485,2.90139
1393163731485,2.90924
1393163791485,2.94022
1393163851485,2.92105
1393163911485,2.93540
1393163971485,2.92987
1393164031496,2.93010
1393164091496,2.91301
1393164151496,2.94075
1393164211496,2.93413
1393164271496,2.93913
1393164331496,2.95475
1393164391496,2.91825
1393164451496,2.94050
1393164511496,2.95107
1393164571496,3.10986
1393164631496,2.91969
1393164691496,2.91576
1393164751496,2.92462
1393164811496,2.91772
1393164871496,2.94063
1393164931496,2.94092
1393164991496,2.93608
1393165051496,2.89226
1393165111496,2.94002
1393165171496,2.95675
1393165231496,2.93009
1393165291496,2.93434
1393165351496,2.93676
1393165411496,2.95645
1393165471496,2.93695
1393165531496,2.91289
1393165591496,2.93482
1393165651496,2.90843
1393165711496,2.93839
1393165771496,2.94050
1393165831496,2.94157
1393165891496,2.92619
1393165951496,2.90921
1393166011496,2.92946
1393166071496,2.92400
1393166131496,2.94221
1393166191496,2.93539
1393166251496,2.91144
1393166311496,2.90743
1393166371496,2.95229
1393166431496,2.92352
1393166491496,2.92163
1393166551496,2.88294
1393166611496,2.92882
1393166671496,2.93628
1393166731496,2.93243
1393166791496,2.91739
1393166851496,2.93337
1393166911496,2.90729
1393166971496,2.93828
1393167031496,2.93882
1393167091496,2.91004
1393167151496,2.93889
1393167211496,2.90744
1393167271496,2.90183
1393167331496,2.90718
1393167391496,2.93638
1393167451496,2.91962
1393167511496,2.90635
1393167571496,2.91760
1393167631507,2.94179
1393167691507,2.89674
1393167751507,2.86976
1393167811507,2.90520
1393167871507,2.91466
1393167931507,2.91405
1393167991507,2.90126
1393168051507,2.90561
1393168111507,2.93415
1393168171507,2.91210
1393168231507,2.91102
1393168291507,2.87773
1393168351507,2.88575
1393168411507,2.89802
1393168471507,2.90481
1393168531507,2.89580
1393168591507,2.92345
1393168651507,2.90930
1393168711507,2.90317
1393168771507,2.90965
1393168831507,2.87879
1393168891507,2.90021
1393168951507,2.89598
1393169011507,2.91343
1393169071507,2.91888
1393169131507,2.90404
1393169191507,2.91396
1393169251507,2.91774
1393169311507,2.90223
1393169371507,2.89307
1393169431507,2.86211
1393169491507,2.89367
1393169551507,2.90936
1393169611507,2.91219
1393169671507,2.89508
1393169731507,2.89450
1393169791507,2.89037
1393169851507,2.89680
1393169911507,2.90030
1393169971507,2.90556
1393170031507,2.91361
1393170091507,2.89328
1393170151507,2.88408
1393170211507,2.91830
1393170271507,2.88603
1393170331507,2.87779
1393170391507,2.92221
1393170451507,2.87596
1393170511507,2.87701
1393170571507,2.89990
1393170631507,2.91851
1393170691507,2.83857
1393170751507,2.91004
1393170811507,2.86614
1393170871507,2.86675
1393170931507,2.90024
1393170991507,2.89381
1393171051507,2.89140
1393171111507,2.90314
1393171171507,2.91090
1393171231517,2.86891
1393171291517,2.62688
1393171351517,2.89649
1393171411518,2.91245
1393171471518,2.88871
1393171531518,2.88508
1393171591517,2.90820
1393171651517,2.89055
1393171711517,2.91222
1393171771517,2.89568
1393171831517,2.89567
1393171891517,2.89684
1393171951517,2.87584
1393172011517,2.87195
1393172071517,2.89367
1393172131517,2.89142
1393172191517,2.88715
1393172251517,2.89282
1393172311517,2.88691
1393172371517,2.90393
1393172431517,2.91451
1393172491517,2.86218
1393172551517,2.90036
1393172611517,2.85311
1393172671517,2.88039
1393172731518,2.88730
1393172791518,2.89410
1393172851518,2.90303
1393172911518,2.89914
1393172971517,2.88393
1393173031517,2.91171
1393173091517,2.87118
1393173151517,2.90400
1393173211517,2.89103
1393173271517,2.88238
1393173331517,2.87549
1393173391517,2.90428
1393173451517,2.87821
1393173511517,2.86936
1393173571517,2.88383
1393173631517,2.91282
1393173691517,2.91872
1393173751517,2.90059
1393173811517,2.88863
1393173871517,2.88275
1393173931517,2.89772
1393173991517,2.89616
1393174051517,2.88783
1393174111518,2.87812
1393174171518,2.91988
1393174231518,2.97594
1393174291517,2.90900
1393174351517,2.89600
1393174411517,2.86394
1393174471517,2.90779
1393174531517,2.88039
1393174591517,2.92612
1393174651517,2.88847
1393174711517,2.93921
1393174771517,2.93316
1393174831528,2.92420
1393174891528,2.91341
1393174951528,2.91722
1393175011528,2.92615
1393175071528,2.89923
1393175131528,2.89901
1393175191528,2.93567
1393175251528,2.93142
1393175311528,2.92814
1393175371528,2.93420
1393175431528,2.91919
1393175491528,2.92126
1393175551528,2.93179
1393175611528,2.93366
1393175671528,2.93109
1393175731528,2.92675
1393175791528,2.94325
1393175851528,2.94173
1393175911528,2.93946
1393175971528,2.92690
1393176031528,2.94556
1393176091528,2.93889
1393176151528,2.95215
1393176211528,2.91045
1393176271528,2.94947
1393176331528,2.94961
1393176391528,2.95180
1393176451528,2.94480
1393176511528,2.96631
1393176571528,2.94937
1393176631528,2.95709
1393176691528,2.93486
1393176751528,2.95041
1393176811528,2.93229
1393176871528,2.91606
1393176931528,2.93659
1393176991528,2.94652
1393177051528,2.93409
1393177111528,2.96581
1393177171528,2.95147
1393177231528,2.96983
1393177291528,2.94708
1393177351528,2.96485
1393177411528,2.94347
1393177471528,2.95596
1393177531528,2.97117
1393177591528,2.91564
1393177651528,2.95667
1393177711528,2.94974
1393177771528,2.94590
1393177831528,2.96284
1393177891528,2.94356
1393177951528,2.96267
1393178011528,2.94591
1393178071528,2.95848
1393178131528,2.93933
1393178191528,2.90895
1393178251528,2.94074
1393178311528,2.93384
1393178371528,2.96307
1393178431539,2.95553
1393178491539,2.91389
1393178551539,2.73455
1393178611539,2.94582
1393178671539,2.95332
1393178731539,2.94330
1393178791539,2.96570
1393178851539,2.94642
1393178911539,2.95616
1393178971539,2.94535
1393179031539,2.92474
1393179091539,2.95027
1393179151539,2.94512
1393179211539,2.96418
1393179271539,2.95322
1393179331539,2.98031
1393179391539,2.94573
1393179451539,2.94743
1393179511539,2.97081
1393179571539,2.93845
1393179631539,2.93384
1393179691539,2.96393
1393179751539,2.93518
1393179811539,2.93029
1393179871539,2.92709
1393179931539,2.93127
1393179991539,2.97016
1393180051539,2.95882